Location: Ammerl�gen
(47.2167°N, 9.6000°E)
Time: 11:18:13
(UTC+00:00)

ISS - Pass Details

Date: 04 October 2021
Orbit: 417 x 423 km, 51.6° (Epoch: 28 October)

Event Time Altitude Azimuth Distance (km) Brightness Sun altitude
Rises 17:31:20 0° 294° (WNW) 2,366 1.5 -7.0°
Reaches altitude 10° 17:33:26 10° 292° (WNW) 1,501 0.4 -7.3°
Maximum altitude 17:36:47 69° 209° (SSW) 452 -3.5 -7.9°
Drops below altitude 10° 17:40:08 10° 126° (SE) 1,496 -1.5 -8.5°
Enters shadow 17:40:30 - 125° (SE) 1,645 -1.3 -8.5°
